Regional Weather Roundup
Issued by NWS Albany, NY

Home | Current Version | Previous Version | Text Only | Print | Product List | Glossary On
Versions: 1 2 3 4 5 6 7 8 9 10 11 12 13 14 15 16 17 18 19 20 21 22 23 24 25 26 27 28 29 30 31 32 33 34 35 36 37 38 39 40 41 42 43 44 45 46 47 48 49 50
000
ASUS41 KALY 190410
RWRALY

NEW YORK STATE HOURLY WEATHER ROUNDUP
NATIONAL WEATHER SERVICE ALBANY NY
1200 AM EDT SUN APR 19 2015

NOTE: "FAIR" INDICATES FEW OR NO CLOUDS BELOW 12,000 FEET WITH NO
SIGNIFICANT WEATHER AND/OR NO OBSTRUCTIONS TO VISIBILITY.

NYZ032-033-038>043-046>054-057>066-NYZ062>081-190500-
EAST


CITY           SKY/WX    TMP DP  RH WIND       PRES   REMARKS
ALBANY         FAIR      49  30  48 E6        30.12R
GLENS FALLS    CLEAR     39  31  72 N7        30.15R WCI  34
POUGHKEEPSIE   CLEAR     59  26  28 N13       30.08R
NEWBURGH       CLEAR     57  28  33 NE7       30.09R
MONTGOMERY     PTCLDY    56  25  30 N7        30.08R
WHITE PLAINS   PTCLDY    60  27  28 N13G22    30.04R
ISLIP          PTCLDY    60  30  32 N12       30.02R
NEW YORK CITY  PTCLDY    63  29  27 N12       30.05R
CENTRAL PARK   PTCLDY    65  26  23 NE8       30.08R
$$

NYZ005>009-017-018-044>046-055-056-190500-
CENTRAL


CITY           SKY/WX    TMP DP  RH WIND       PRES   REMARKS
FULTON         CLEAR     46  28  49 NE9       30.18R
SYRACUSE       CLEAR     47  28  47 W5        30.17R
ROME           CLEAR     49  26  41 N14       30.16R
ELMIRA         CLEAR     42  31  64 E5        30.15R
BINGHAMTON     CLEAR     47  24  40 N7        30.14R
MONTICELLO     CLEAR     50  23  34 NW6       30.13R
$$

NYZ026>034-041>043-190500-
NORTH


CITY           SKY/WX    TMP DP  RH WIND       PRES   REMARKS
WATERTOWN      CLEAR     45  29  53 NE12      30.20R
FORT DRUM      NOT AVBL
MASSENA        CLEAR     42  27  55 N9        30.24R
SARANAC LAKE   CLEAR     35  27  72 VRB3      30.16R
PLATTSBURGH    CLEAR     42  30  62 NW6       30.20R
$$

NYZ001>004-010>016-019>021-190500-
WEST


CITY           SKY/WX    TMP DP  RH WIND       PRES   REMARKS
NIAGARA FALLS  CLEAR     47  31  53 N13       30.17F
BUFFALO        PTCLDY    49  27  42 N9        30.16F
DUNKIRK        PTCLDY    47  27  45 NE6       30.16S
JAMESTOWN      PTCLDY    48  21  34 NE8       30.15S
WELLSVILLE     PTCLDY    46  22  38 CALM      30.16S
ROCHESTER      CLEAR     48  25  40 NE9       30.20R
PENN YAN       CLEAR     49  23  36 VRB3      30.18R
$$

             KEY
       WCI = WIND CHILL INDEX
       VSB = VISIBILITY
       HX  = HEAT INDEX
$$



USA.gov is the U.S. government's official web portal to all federal, state and local government web resources and services.